Flag for United Kingdom Weather past 2 weeks in Northampton, England, United Kingdom

Now
50 °F

Cool.


Feels Like: 47 °F
Forecast: 44 / 65 °F
Wind: 8 mph from Northwest

Location: Wittering

Current Time: Sep 21, 2014 at 5:32:22 AM

Latest Report: Sep 21, 2014 at 4:50 AM


Visibility: N/A

Pressure: 30.18 "Hg

Humidity: 94%

Dew point: 48 °F

Location of NorthamptonLocation

Historic Weather in Northampton — Graph

°F

Northampton temperature yesterday

Maximum temperature yesterday: 63 °F (at 1:50 PM)
Minimum temperature yesterday: 55 °F (at 11:50 PM)
Average temperature yesterday: 59 °F

Past Weeks' High & Low Weather Summary

 TemperatureHumidityPressure
High73 °F (Sep 18, 2:50 PM)100% (Sep 6, 7:50 AM)30.36 "Hg (Sep 6, 7:50 AM)
Low45 °F (Sep 8, 2:50 AM)46% (Sep 8, 3:50 PM)29.83 "Hg (Sep 18, 5:50 AM)
Average59 °F85%30.08 "Hg
* Reported Sep 6 3:50 AM — Sep 21 3:50 AM, Northampton, Weather by CustomWeather, © 2014

Note: Actual official high and low records may vary slightly from our data, if they occured in-between our weather recording intervals... More about our weather records

Advertising

Northampton weather history for previous 24 hours

 ConditionsComfort  
Time TempWeatherWind HumidityBarometerVisibility
3:50 AM
Sep 21
52 °FCool.9 mph94%30.18 "HgN/A
2:50 AM52 °FPassing clouds.9 mph100%30.18 "HgN/A
1:50 AM54 °FPassing clouds.10 mph94%30.18 "HgN/A
12:50 AM54 °FPassing clouds.10 mph94%30.15 "HgN/A
11:50 PM
Sep 20
55 °FPassing clouds.13 mph94%30.15 "HgN/A
10:50 PM57 °FPassing clouds.13 mph88%30.12 "HgN/A
9:50 PM57 °FPartly cloudy.13 mph94%30.12 "HgN/A
8:50 PM57 °FPassing clouds.10 mph100%30.09 "Hg4 mi
7:50 PM59 °FFog.10 mph94%30.09 "Hg6 mi
6:50 PM59 °FPartly sunny.10 mph88%30.07 "HgN/A
1:50 PM63 °FPartly sunny.8 mph88%30.04 "Hg5 mi
12:50 PM61 °FPartly sunny.5 mph94%30.04 "Hg5 mi
11:50 AM59 °FFog.7 mph100%30.01 "Hg4 mi
10:50 AM59 °FLow clouds.7 mph100%30.01 "Hg2 mi
9:50 AM59 °FFog.6 mph100%30.01 "Hg1 mi
8:50 AM59 °FFog.6 mph100%29.98 "Hg0 mi
7:50 AM59 °FFog.5 mph100%29.98 "Hg0 mi
6:50 AM57 °FFog.6 mph100%29.98 "Hg1 mi
5:50 AM59 °FDrizzle. Dense fog.5 mph100%29.95 "Hg0 mi
Weather by CustomWeather, © 2014

See weather overviewHow to use our weather pages